FW9958 Weather Reports


time (UTC)temp
C
wind
direction
speed
KPH
gust
KPH
rain 1hr
cm
rain 24hr
cm
rain mn
cm
humidity
%
barometer
mb
20260506044703 9 0 0.0 0.0 0.00 0.00 0.00 69 1013.2
20260506043049 9 0 0.0 0.0 0.00 0.00 0.00 70 1013.2
20260506041601 9 0 0.0 0.0 0.00 0.00 0.00 70 1013.1
20260506040058 9 0 0.0 0.0 0.00 0.00 0.00 72 1013.1
20260506034625 9 0 0.0 0.0 0.00 0.00 0.00 74 1012.9
20260506033101 9 0 0.0 0.0 0.00 0.00 0.00 77 1012.8
20260506031553 9 0 0.0 0.0 0.00 0.00 0.00 78 1012.2
20260506030052 9 0 0.0 0.0 0.00 0.00 0.00 79 1011.8
20260506024550 9 0 0.0 0.0 0.00 0.00 0.00 81 1012.0
20260506023108 9 0 0.0 0.0 0.00 0.00 0.00 81 1012.2
20260506021550 9 0 0.0 0.0 0.00 0.00 0.00 81 1012.0
20260506020051 9 0 0.0 0.0 0.00 0.00 0.00 80 1011.9
20260506014550 9 0 0.0 0.0 0.00 0.00 0.00 80 1011.7
20260506013049 9 0 0.0 0.0 0.00 0.00 0.00 80 1011.5
20260506011601 10 0 0.0 0.0 0.00 0.00 0.00 79 1011.4
20260506010059 10 0 0.0 0.0 0.00 0.00 0.00 78 1011.1
20260506004606 10 0 0.0 0.0 0.00 0.00 0.00 78 1010.8
20260506003103 10 0 0.0 0.0 0.00 0.00 0.00 78 1010.2
20260506001556 10 0 0.0 0.0 0.00 0.00 0.00 77 1010.2
20260506000054 10 0 0.0 0.0 0.00 0.00 0.00 76 1010.3
20260505234625 10 0 0.0 0.0 0.00 0.00 0.00 75 1009.9
20260505233049 10 0 0.0 0.0 0.00 0.00 0.00 74 1010.2
20260505231549 11 0 0.0 0.0 0.00 0.00 0.00 74 1010.6
20260505230050 11 0 0.0 0.0 0.00 0.00 0.00 74 1010.1
20260505224550 11 0 0.0 0.0 0.00 0.00 0.00 73 1009.8
20260505223051 11 0 0.0 0.0 0.00 0.00 0.00 72 1009.7
20260505221549 11 0 0.0 0.0 0.00 0.00 0.00 72 1009.7
20260505214601 12 0 0.0 0.0 0.00 0.00 0.00 70 1009.2
20260505213054 12 0 0.0 0.0 0.00 0.00 0.00 71 1008.5
20260505211554 12 0 0.0 0.0 0.00 0.00 0.00 71 1008.8
20260505210053 12 0 0.0 0.0 0.00 0.00 0.00 72 1008.5
20260505204548 12 0 0.0 0.0 0.00 0.00 0.00 73 1008.7
20260505203050 12 0 0.0 0.0 0.00 0.00 0.00 73 1009.6
20260505201553 12 0 0.0 0.0 0.00 0.00 0.00 72 1008.5
20260505200057 12 0 0.0 0.0 0.00 0.00 0.00 74 1008.2
20260505194552 12 0 0.0 0.0 0.00 0.00 0.00 74 1008.3
20260505193052 12 0 0.0 0.0 0.00 0.00 0.00 76 1008.2
20260505191600 12 0 0.0 0.0 0.00 0.00 0.00 77 1008.2
20260505190057 12 0 0.0 0.0 0.00 0.00 0.00 79 1008.2
20260505184553 12 0 0.0 0.0 0.00 0.00 0.00 78 1008.1
20260505183052 13 0 0.0 0.0 0.00 0.00 0.00 77 1007.9
20260505181551 13 0 0.0 0.0 0.00 0.00 0.00 76 1007.8
20260505180059 13 0 0.0 0.0 0.00 0.00 0.00 76 1007.5
20260505174609 13 0 0.0 0.0 0.00 0.00 0.00 77 1007.2
20260505173054 13 0 0.0 0.0 0.00 0.00 0.00 78 1007.2
20260505171549 13 0 0.0 0.0 0.00 0.00 0.00 79 1007.0
20260505170131 13 0 0.0 0.0 0.00 0.00 0.00 79 1006.6
20260505164552 13 0 0.0 0.0 0.00 0.00 0.00 80 1006.5
20260505163050 13 0 0.0 0.0 0.00 0.00 0.00 80 1005.9
20260505161557 13 0 0.0 0.0 0.00 0.00 0.00 81 1005.5
20260505153058 15 0 0.0 0.0 0.00 0.00 0.00 81 1004.2
20260505151554 15 0 0.0 0.0 0.00 0.00 0.00 80 1003.7
20260505124553 20 0 0.0 0.0 0.00 0.00 0.00 81 1001.1
20260505123109 20 0 0.0 0.0 0.00 0.00 0.00 80 1001.0
20260505121552 20 0 0.0 0.0 0.00 0.00 0.00 80 1000.5
20260505120052 20 0 0.0 0.0 0.00 0.00 0.00 79 1000.4
20260505114612 20 0 0.0 0.0 0.00 0.00 0.00 78 1000.2
20260505113053 20 0 0.0 0.0 0.00 0.00 0.00 77 999.2
20260505111605 20 0 0.0 0.0 0.00 0.00 0.00 76 998.8
20260505101547 21 0 0.0 0.0 0.00 0.00 0.00 74 998.1
20260505100051 21 0 0.0 0.0 0.00 0.00 0.00 74 998.1
20260505094548 21 0 0.0 0.0 0.00 0.00 0.00 73 998.0
20260505093045 22 0 0.0 0.0 0.00 0.00 0.00 73 998.1
20260505091547 21 0 0.0 0.0 0.00 0.00 0.00 73 997.9
20260505090055 21 0 0.0 0.0 0.00 0.00 0.00 73 998.1
20260505084549 21 0 0.0 0.0 0.00 0.00 0.00 73 998.3
20260505083100 22 0 0.0 0.0 0.00 0.00 0.00 73 998.3
20260505081555 22 0 0.0 0.0 0.00 0.00 0.00 73 998.6
20260505080052 22 0 0.0 0.0 0.00 0.00 0.00 73 998.5
20260505074548 21 0 0.0 0.0 0.00 0.00 0.00 73 998.7
20260505073055 22 0 0.0 0.0 0.00 0.00 0.00 73 998.9
20260505071550 22 0 0.0 0.0 0.00 0.00 0.00 73 999.0
20260505070053 22 0 0.0 0.0 0.00 0.00 0.00 72 999.1
20260505064559 22 0 0.0 0.0 0.00 0.00 0.00 72 999.3
20260505063053 22 0 0.0 0.0 0.00 0.00 0.00 71 999.4
20260505061552 22 0 0.0 0.0 0.00 0.00 0.00 71 999.6
20260505060058 22 0 0.0 0.0 0.00 0.00 0.00 71 999.7
20260505054559 22 0 0.0 0.0 0.00 0.00 0.00 70 999.7
20260505053109 22 0 0.0 0.0 0.00 0.00 0.00 70 999.8
20260505051549 22 0 0.0 0.0 0.00 0.00 0.00 70 1000.2